Weather History for Carbondale, IL

Change the Weather History Date:

Friday, September 14, 2012

  Actual Average Record
Temperature  
Mean Temperature 64 °F -  
Max Temperature 69 °F 82 °F 105 °F (1939)
Min Temperature 59 °F 57 °F 37 °F (1964)
Degree Days  
Heating Degree Days 1    
Growing Degree Days 14 (Base 50)    
Moisture  
Dew Point 58 °F    
Average Humidity 81    
Maximum Humidity 93    
Minimum Humidity 68    
Precipitation  
Precipitation 0.00 in - - ()
Sea Level Pressure  
Sea Level Pressure 30.27 in    
Wind  
Wind Speed 5 mph (North)    
Max Wind Speed 9 mph    
Max Gust Speed -    
Visibility 10 miles    
Events      
Averages and records for this station are not official NWS values.
T = Trace of Precipitation, MM = Missing Value Source: NWS Daily Summary

Daily Weather History Graph

Daily Weather History Graph

Search for Another Location

Airport:

Trip Planner

Search our weather history database for the weather conditions in past years. The results will help you decide how hot, cold, wet, or windy it might be!

Date:

Astronomy

Sep. 14, 2012 Rise Set
Actual Time 6:38 AM CDT 7:05 PM CDT
Civil Twilight 6:12 AM CDT 7:31 PM CDT
Nautical Twilight 5:41 AM CDT 8:02 PM CDT
Astronomical Twilight 5:09 AM CDT 8:34 PM CDT
Moon 5:03 AM CDT (9/14) 6:02 PM CDT (9/14)
Length of Visible Light 13h 19m
Length of Day
12h 27m
Waning Crescent, 2% of the Moon is Illuminated
Sep 14
Waning Crescent
Sep 15
New
Sep 22
First Quarter
Sep 29
Full
Oct 8
Last Quarter

Hourly Weather History & Observations

Time (CDT) Temp. Dew Point Humidity Pressure Visibility Wind Dir Wind Speed Gust Speed Precip Events Conditions
12:52 AM 63.0 °F 57.0 °F 81% 30.25 in 10.0 mi NW 6.9 mph - N/A   Clear
1:52 AM 61.0 °F 55.9 °F 83% 30.25 in 10.0 mi WNW 4.6 mph - N/A   Partly Cloudy
2:52 AM 61.0 °F 55.9 °F 83% 30.23 in 10.0 mi NNW 3.5 mph - N/A   Overcast
3:52 AM 61.0 °F 55.9 °F 83% 30.24 in 10.0 mi NNW 5.8 mph - N/A   Overcast
5:52 AM 61.0 °F 55.9 °F 83% 30.25 in 10.0 mi NNW 4.6 mph - N/A   Mostly Cloudy
6:22 AM 60.8 °F 57.2 °F 88% 30.26 in 10.0 mi NNW 3.5 mph - N/A   Mostly Cloudy
6:52 AM 60.1 °F 55.9 °F 86% 30.27 in 10.0 mi NNW 5.8 mph - N/A   Overcast
7:52 AM 61.0 °F 57.0 °F 87% 30.29 in 10.0 mi North 8.1 mph - N/A   Overcast
8:52 AM 62.1 °F 57.0 °F 84% 30.29 in 10.0 mi North 9.2 mph - N/A   Overcast
9:52 AM 63.0 °F 57.0 °F 81% 30.31 in 10.0 mi NNE 3.5 mph - N/A   Overcast
11:52 AM 64.0 °F 57.9 °F 80% 30.31 in 10.0 mi North 9.2 mph - N/A   Overcast
2:20 PM 68.0 °F 60.8 °F 78% 30.29 in 10.0 mi Variable 4.6 mph - N/A   Overcast
2:52 PM 68.0 °F 60.1 °F 76% 30.28 in 10.0 mi NE 6.9 mph - N/A   Overcast
3:52 PM 69.1 °F 60.1 °F 73% 30.27 in 10.0 mi NNE 5.8 mph - N/A   Overcast
4:52 PM 69.1 °F 59.0 °F 70% 30.27 in 10.0 mi NNE 6.9 mph - N/A   Mostly Cloudy
5:02 PM 69.8 °F 59.0 °F 68% 30.27 in 10.0 mi NNE 4.6 mph - N/A   Scattered Clouds
5:52 PM 69.1 °F 59.0 °F 70% 30.26 in 10.0 mi NNE 5.8 mph - N/A   Clear
6:52 PM 66.9 °F 59.0 °F 76% 30.26 in 10.0 mi NNE 3.5 mph - N/A   Clear
7:52 PM 63.0 °F 60.1 °F 90% 30.27 in 10.0 mi North 4.6 mph - N/A   Clear
8:52 PM 62.1 °F 57.0 °F 84% 30.28 in 10.0 mi NNW 4.6 mph - N/A   Clear
9:52 PM 61.0 °F 57.0 °F 87% 30.29 in 10.0 mi Calm Calm - N/A   Clear
10:52 PM 59.0 °F 57.0 °F 93% 30.29 in 10.0 mi North 3.5 mph - N/A   Clear
11:52 PM 59.0 °F 55.0 °F 87% 30.29 in 10.0 mi North 4.6 mph - N/A   Clear